Weather History for Dallas/Ft Worth, TX

Change the Weather History Date:

Saturday, November 6, 2010

  Actual Average Record
Temperature  
Mean Temperature 52 °F 60 °F  
Max Temperature 66 °F 71 °F 89 °F (1989)
Min Temperature 38 °F 50 °F 27 °F (1959)
Degree Days  
Heating Degree Days 13 6  
Month to date heating degree days 47 33  
Since 1 July heating degree days 73 105  
Cooling Degree Days 0 2  
Month to date cooling degree days 1 12  
Year to date cooling degree days 3171 2735  
Growing Degree Days 2 (Base 50)    
Moisture  
Dew Point 33 °F    
Average Humidity 56    
Maximum Humidity 85    
Minimum Humidity 27    
Precipitation  
Precipitation 0.00 in 0.11 in 2.02 in (1918)
Month to date precipitation 1.34 0.68  
Year to date precipitation 29.49 31.56  
Snow  
Snow 0.00 in 0.00 in 0.00 in ()
Month to date snowfall 0.0 0.0  
Since 1 July snowfall 0.0 0.0  
Since 1 September snowfall 0.0 0.0  
Snow Depth 0.00 in    
Sea Level Pressure  
Sea Level Pressure 30.33 in    
Wind  
Wind Speed 6 mph (SSE)    
Max Wind Speed 14 mph    
Max Gust Speed 18 mph    
Visibility 10 miles    
Events      
T = Trace of Precipitation, MM = Missing Value Source: NWS Daily Summary

Daily Weather History Graph

Daily Weather History Graph

Search for Another Location

Airport:

Trip Planner

Search our weather history database for the weather conditions in past years. The results will help you decide how hot, cold, wet, or windy it might be!

Date:

Astronomy

Nov. 06, 2010 Rise Set
Actual Time 7:50 AM CDT 6:32 PM CDT
Civil Twilight 7:24 AM CDT 6:58 PM CDT
Nautical Twilight 6:55 AM CDT 7:27 PM CDT
Astronomical Twilight 6:26 AM CDT 7:56 PM CDT
Moon 8:23 AM CDT (11/6) 6:48 PM CDT (11/6)
Length of Visible Light 11h 33m
Length of Day
10h 42m
New Moon, 0% of the Moon is Illuminated
Nov 6
New Moon
Nov 13
First Quarter
Nov 21
Full
Nov 28
Last Quarter
Dec 5
New

Hourly Weather History & Observations

Time (CDT) Temp. Windchill Dew Point Humidity Pressure Visibility Wind Dir Wind Speed Gust Speed Precip Events Conditions
12:53 AM 46.9 °F - 33.1 °F 59% 30.28 in 10.0 mi WSW 3.5 mph - N/A   Clear
1:53 AM 43.0 °F - 35.1 °F 74% 30.28 in 10.0 mi Calm Calm - N/A   Clear
2:53 AM 43.0 °F 39.5 °F 35.1 °F 74% 30.27 in 10.0 mi SSW 5.8 mph - N/A   Clear
3:53 AM 41.0 °F 39.0 °F 35.1 °F 79% 30.27 in 10.0 mi East 3.5 mph - N/A   Clear
4:53 AM 44.1 °F - 36.0 °F 73% 30.28 in 10.0 mi Calm Calm - N/A   Clear
5:53 AM 39.9 °F - 35.1 °F 83% 30.31 in 10.0 mi Calm Calm - N/A   Clear
6:53 AM 42.1 °F - 36.0 °F 79% 30.33 in 10.0 mi Calm Calm - N/A   Clear
7:53 AM 39.0 °F 36.8 °F 34.0 °F 82% 30.35 in 10.0 mi South 3.5 mph - N/A   Clear
8:53 AM 43.0 °F - 37.9 °F 82% 30.37 in 10.0 mi Calm Calm - N/A   Clear
9:53 AM 50.0 °F - 37.9 °F 63% 30.38 in 10.0 mi ESE 4.6 mph - N/A   Clear
10:53 AM 55.0 °F - 32.0 °F 42% 30.39 in 10.0 mi SE 9.2 mph - N/A   Clear
11:53 AM 59.0 °F - 28.9 °F 32% 30.39 in 10.0 mi SE 10.4 mph - N/A   Clear
12:53 PM 61.0 °F - 28.9 °F 30% 30.37 in 10.0 mi South 9.2 mph - N/A   Clear
1:53 PM 63.0 °F - 28.9 °F 28% 30.34 in 10.0 mi SSE 9.2 mph - N/A   Clear
2:53 PM 64.4 °F - 30.2 °F 28% 30.32 in 10.0 mi SSE 10.4 mph - N/A   Clear
3:53 PM 64.9 °F - 30.9 °F 28% 30.31 in 10.0 mi South 12.7 mph 18.4 mph N/A   Clear
4:53 PM 64.9 °F - 32.0 °F 29% 30.31 in 10.0 mi SE 12.7 mph - N/A   Clear
5:53 PM 63.0 °F - 32.0 °F 31% 30.30 in 10.0 mi SE 11.5 mph - N/A   Clear
6:53 PM 55.0 °F - 33.1 °F 43% 30.31 in 10.0 mi SSE 6.9 mph - N/A   Clear
7:53 PM 54.0 °F - 34.0 °F 47% 30.32 in 10.0 mi SE 5.8 mph - N/A   Clear
8:53 PM 53.6 °F - 33.8 °F 47% 30.33 in 10.0 mi SE 4.6 mph - N/A   Clear
9:53 PM 50.0 °F - 33.1 °F 52% 30.34 in 10.0 mi SSE 6.9 mph - N/A   Clear
10:53 PM 50.0 °F - 32.0 °F 50% 30.35 in 10.0 mi SSE 8.1 mph - N/A   Clear
11:53 PM 50.0 °F - 30.9 °F 48% 30.35 in 10.0 mi SSE 6.9 mph - N/A   Clear